GW2280 Weather Reports


Display with metric or nautical units.
time (UTC)temp
F
wind
direction
speed
MPH
gust
MPH
rain 1hr
in
rain 24hr
in
rain mn
in
humidity
%
barometer
mb
20260902193038 66 360 4.0 10.0 0.00 0.00 0.00 77 1025.0
20260902192517 66 360 5.0 10.0 0.00 0.00 0.00 77 1024.9
20260902192018 66 360 5.0 9.0 0.00 0.00 0.00 77 1025.0
20260902191538 66 360 3.0 10.0 0.00 0.00 0.00 76 1024.9
20260902191019 66 360 6.0 10.0 0.00 0.00 0.00 76 1024.9
20260902190520 66 360 4.0 14.0 0.00 0.00 0.00 76 1024.8
20260902190035 66 0 6.0 14.0 0.00 0.00 0.00 77 1024.8
20260902185520 65 360 4.0 12.0 0.00 0.00 0.00 77 1024.7
20260902185018 65 360 3.0 12.0 0.00 0.00 0.00 77 1024.7
20260902184546 65 360 8.0 12.0 0.00 0.00 0.00 77 1024.7
20260902184020 65 360 5.0 10.0 0.00 0.00 0.00 76 1024.7
20260902183518 65 0 2.0 9.0 0.00 0.00 0.00 77 1024.8
20260902183038 65 0 3.0 9.0 0.00 0.00 0.00 77 1024.8
20260902182516 65 360 3.0 9.0 0.00 0.00 0.00 78 1024.9
20260902182018 64 360 4.0 8.0 0.00 0.00 0.00 78 1024.9
20260902181542 64 360 3.0 8.0 0.00 0.00 0.00 79 1025.0
20260902181018 64 0 2.0 8.0 0.00 0.00 0.00 80 1025.0
20260902180516 64 360 4.0 8.0 0.00 0.00 0.00 79 1025.1
20260902180038 64 0 3.0 8.0 0.00 0.00 0.00 80 1025.1
20260902175516 64 360 3.0 8.0 0.00 0.00 0.00 80 1025.1
20260902175021 64 0 2.0 8.0 0.00 0.00 0.00 80 1025.1
20260902174533 64 360 4.0 8.0 0.00 0.00 0.00 79 1025.2
20260902174019 64 360 1.0 8.0 0.00 0.00 0.00 81 1025.2
20260902173521 64 0 0.0 8.0 0.00 0.00 0.00 82 1025.2
20260902173037 64 360 2.0 8.0 0.00 0.00 0.00 81 1025.0
20260902172517 64 360 1.0 8.0 0.00 0.00 0.00 82 1025.0
20260902172020 64 360 2.0 10.0 0.00 0.00 0.00 83 1025.0
20260902171537 64 360 4.0 10.0 0.00 0.00 0.00 80 1025.1
20260902171022 64 360 4.0 8.0 0.00 0.00 0.00 82 1025.1
20260902170519 64 360 3.0 8.0 0.00 0.00 0.00 82 1025.1
20260902170038 64 360 1.0 8.0 0.00 0.00 0.00 84 1025.1
20260902165518 64 360 3.0 9.0 0.00 0.00 0.00 84 1025.1
20260902165018 64 360 3.0 9.0 0.00 0.00 0.00 84 1024.9
20260902164535 64 360 5.0 10.0 0.00 0.00 0.00 85 1024.9
20260902164018 64 360 3.0 10.0 0.00 0.00 0.00 85 1024.9
20260902163521 64 360 4.0 10.0 0.00 0.00 0.00 86 1024.9
20260902163036 64 360 4.0 9.0 0.00 0.00 0.00 88 1025.1
20260902162519 64 360 2.0 6.0 0.00 0.00 0.00 87 1025.3
20260902162019 64 360 1.0 9.0 0.00 0.00 0.00 88 1025.3
20260902161547 64 360 2.0 9.0 0.00 0.00 0.00 88 1025.3
20260902161019 64 360 4.0 9.0 0.00 0.00 0.00 88 1025.5
20260902160519 63 360 2.0 6.0 0.00 0.00 0.00 89 1025.5
20260902160033 64 360 1.0 5.0 0.00 0.00 0.00 89 1025.7
20260902155521 63 0 1.0 5.0 0.00 0.00 0.00 89 1025.7
20260902155019 63 0 1.0 5.0 0.00 0.00 0.00 89 1025.7
20260902154537 63 360 2.0 5.0 0.00 0.00 0.00 89 1025.7
20260902154017 63 360 1.0 5.0 0.00 0.00 0.00 88 1025.8
20260902153525 63 360 2.0 6.0 0.00 0.00 0.00 88 1025.8
20260902153037 63 0 2.0 6.0 0.00 0.00 0.00 88 1025.9
20260902152519 63 360 0.0 4.0 0.00 0.00 0.00 89 1025.8
20260902152019 63 0 0.0 8.0 0.00 0.00 0.00 88 1025.8
20260902151537 63 360 1.0 10.0 0.00 0.00 0.00 88 1025.8
20260902151016 63 360 3.0 10.0 0.00 0.00 0.00 89 1025.7
20260902150518 63 360 2.0 10.0 0.00 0.00 0.00 88 1025.7
20260902150038 63 360 2.0 8.0 0.00 0.00 0.00 88 1025.8
20260902145517 63 360 2.0 6.0 0.00 0.00 0.00 89 1025.6
20260902145017 63 360 4.0 6.0 0.00 0.00 0.00 89 1025.5
20260902144539 63 360 1.0 9.0 0.00 0.00 0.00 89 1025.5
20260902144019 63 360 3.0 9.0 0.00 0.00 0.00 91 1025.3
20260902143521 63 360 6.0 9.0 0.00 0.00 0.00 92 1025.3
20260902143041 63 360 2.0 9.0 0.00 0.00 0.00 94 1025.3
20260902142520 62 0 2.0 9.0 0.00 0.00 0.00 95 1025.3
20260902142017 62 360 6.0 9.0 0.00 0.00 0.00 95 1025.3
20260902141536 62 360 3.0 9.0 0.00 0.00 0.00 95 1025.3
20260902141020 61 360 4.0 9.0 0.00 0.00 0.00 96 1025.2
20260902140517 61 360 3.0 8.0 0.00 0.00 0.00 96 1025.0
20260902140036 61 360 1.0 6.0 0.00 0.00 0.00 97 1025.1
20260902135517 61 360 2.0 8.0 0.00 0.00 0.00 97 1025.1
20260902135017 61 0 3.0 8.0 0.00 0.00 0.00 97 1025.1
20260902134539 61 360 4.0 8.0 0.00 0.00 0.00 97 1025.1
20260902134021 60 360 2.0 6.0 0.00 0.00 0.00 97 1025.0
20260902133520 60 0 2.0 6.0 0.00 0.00 0.00 97 1025.0
20260902133036 60 360 2.0 6.0 0.00 0.00 0.00 98 1025.0
20260902132519 60 360 3.0 8.0 0.00 0.00 0.00 98 1025.1
20260902132019 60 360 2.0 8.0 0.00 0.00 0.00 98 1025.0
20260902131535 60 360 2.0 5.0 0.00 0.00 0.00 98 1024.9
20260902131018 60 360 2.0 5.0 0.00 0.00 0.00 98 1025.1
20260902130536 60 360 2.0 6.0 0.00 0.00 0.00 98 1025.2
20260902130038 60 360 1.0 6.0 0.00 0.00 0.00 98 1024.9
20260902125518 60 360 3.0 8.0 0.00 0.00 0.00 98 1025.1
20260902125018 60 360 2.0 8.0 0.00 0.00 0.00 98 1025.1
20260902124538 60 360 1.0 5.0 0.00 0.00 0.00 98 1025.1
20260902124017 60 0 0.0 6.0 0.00 0.00 0.00 98 1025.1
20260902123518 60 360 2.0 8.0 0.00 0.00 0.00 98 1025.0
20260902123042 60 360 3.0 8.0 0.00 0.00 0.00 98 1025.0
20260902122519 60 360 2.0 9.0 0.00 0.00 0.00 98 1025.0
20260902122018 60 360 2.0 9.0 0.00 0.00 0.00 98 1025.1
20260902121536 60 360 2.0 9.0 0.00 0.00 0.00 98 1024.9
20260902121018 60 360 3.0 9.0 0.00 0.00 0.00 98 1024.9
20260902120518 60 360 3.0 9.0 0.00 0.00 0.00 98 1024.9
20260902120040 60 360 2.0 8.0 0.00 0.00 0.00 98 1025.0
20260902115521 60 360 3.0 10.0 0.00 0.00 0.00 98 1025.0
20260902115017 60 0 2.0 10.0 0.00 0.00 0.00 98 1024.9
20260902114539 60 360 2.0 9.0 0.00 0.00 0.00 98 1024.9
20260902114018 60 360 4.0 10.0 0.00 0.00 0.00 98 1024.9
20260902113518 60 360 3.0 10.0 0.00 0.00 0.00 98 1024.7
20260902113040 60 360 4.0 10.0 0.00 0.00 0.00 98 1024.8
20260902112519 60 360 3.0 9.0 0.00 0.00 0.00 98 1024.9
20260902112021 60 360 4.0 9.0 0.00 0.00 0.00 98 1024.8
20260902111541 60 360 4.0 9.0 0.00 0.00 0.00 98 1024.8
20260902111018 60 360 4.0 9.0 0.00 0.00 0.00 98 1024.7
20260902110519 60 360 2.0 8.0 0.00 0.00 0.00 98 1024.7
20260902110043 60 0 3.0 8.0 0.00 0.00 0.00 98 1024.6
20260902105516 60 0 2.0 8.0 0.00 0.00 0.00 98 1024.5
20260902105016 60 0 2.0 8.0 0.00 0.00 0.00 98 1024.4
20260902104549 60 360 3.0 9.0 0.00 0.00 0.00 98 1024.4
20260902104021 60 360 5.0 10.0 0.00 0.00 0.00 98 1024.3
20260902103523 60 360 5.0 10.0 0.00 0.00 0.00 97 1024.3
20260902103041 60 360 4.0 10.0 0.00 0.00 0.00 97 1024.4
20260902102519 60 360 4.0 10.0 0.00 0.00 0.00 97 1024.4
20260902102019 60 360 4.0 9.0 0.00 0.00 0.00 97 1024.3
20260902101536 60 360 5.0 9.0 0.00 0.00 0.00 97 1024.3
20260902101018 60 360 4.0 9.0 0.00 0.00 0.00 97 1024.4
20260902100517 60 360 3.0 8.0 0.00 0.00 0.00 98 1024.3
20260902100035 60 360 3.0 8.0 0.00 0.00 0.00 98 1024.2
20260902095518 60 360 3.0 8.0 0.00 0.00 0.00 97 1024.2
20260902095016 60 360 3.0 6.0 0.00 0.00 0.00 97 1024.2
20260902094538 60 360 0.0 4.0 0.00 0.00 0.00 97 1024.1
20260902094017 60 0 0.0 3.0 0.00 0.00 0.00 97 1024.2
20260902093518 60 0 0.0 4.0 0.00 0.00 0.00 97 1024.3
20260902093037 60 0 0.0 4.0 0.00 0.00 0.00 97 1024.2
20260902092519 60 360 2.0 4.0 0.00 0.00 0.00 97 1024.0
20260902092019 60 360 0.0 4.0 0.00 0.00 0.00 97 1024.0
20260902091535 60 0 0.0 0.0 0.00 0.00 0.00 97 1023.9
20260902091018 60 0 0.0 2.0 0.00 0.00 0.00 97 1024.0
20260902090519 60 0 0.0 2.0 0.00 0.00 0.00 97 1024.1
20260902090038 60 0 0.0 2.0 0.00 0.00 0.00 97 1024.2
20260902085516 60 0 0.0 0.0 0.00 0.00 0.00 97 1024.3
20260902085018 60 0 0.0 0.0 0.00 0.00 0.00 97 1024.2
20260902084541 60 0 0.0 0.0 0.00 0.00 0.00 97 1024.3
20260902084020 60 0 0.0 0.0 0.00 0.00 0.00 97 1024.3
20260902083521 60 0 0.0 0.0 0.00 0.00 0.00 97 1024.3
20260902083037 60 0 0.0 0.0 0.00 0.00 0.00 97 1024.2
20260902082521 60 0 0.0 0.0 0.00 0.00 0.00 97 1024.1
20260902082019 60 0 0.0 1.0 0.00 0.00 0.00 97 1024.2
20260902081535 61 0 0.0 1.0 0.00 0.00 0.00 97 1024.2
20260902081019 61 0 0.0 1.0 0.00 0.00 0.00 97 1024.3
20260902080518 61 0 0.0 0.0 0.00 0.00 0.00 97 1024.3
20260902080034 61 0 0.0 0.0 0.00 0.00 0.00 97 1024.1
20260902075516 61 0 0.0 0.0 0.00 0.00 0.00 97 1024.2
20260902075018 61 0 0.0 0.0 0.00 0.00 0.00 97 1024.1
20260902074538 61 0 0.0 0.0 0.00 0.00 0.00 97 1024.1
20260902074018 61 0 0.0 2.0 0.00 0.00 0.00 97 1024.0
20260902073522 61 0 0.0 2.0 0.00 0.00 0.00 97 1023.9
20260902073047 61 360 0.0 3.0 0.00 0.00 0.00 97 1023.9
20260902072518 61 0 0.0 4.0 0.00 0.00 0.00 97 1024.0
20260902072019 61 360 1.0 4.0 0.00 0.00 0.00 97 1023.8
20260902071535 61 0 0.0 0.0 0.00 0.00 0.00 97 1023.9
20260902071018 61 0 0.0 0.0 0.00 0.00 0.00 97 1023.8
20260902070517 61 0 0.0 0.0 0.00 0.00 0.00 97 1023.8
20260902070040 61 0 0.0 3.0 0.00 0.00 0.00 97 1023.8
20260902065517 61 0 0.0 3.0 0.00 0.00 0.00 97 1023.8
20260902065017 61 0 0.0 0.0 0.00 0.00 0.00 97 1023.8
20260902064547 61 0 0.0 1.0 0.00 0.00 0.00 97 1023.8
20260902064021 61 0 0.0 3.0 0.00 0.00 0.00 97 1023.8
20260902063520 61 0 0.0 3.0 0.00 0.00 0.00 97 1023.8
20260902063046 61 0 0.0 3.0 0.00 0.00 0.00 97 1023.8
20260902062520 61 360 1.0 3.0 0.00 0.00 0.00 97 1023.6
20260902062019 61 0 0.0 0.0 0.00 0.00 0.00 97 1023.6
20260902061535 61 0 0.0 3.0 0.00 0.00 0.00 97 1023.7
20260902061017 61 0 0.0 3.0 0.00 0.00 0.00 97 1023.6
20260902060517 61 360 1.0 3.0 0.00 0.00 0.00 97 1023.7
20260902060040 61 360 0.0 2.0 0.00 0.00 0.00 97 1023.9
20260902055522 61 0 0.0 1.0 0.00 0.00 0.00 97 1024.0
20260902055019 61 0 0.0 1.0 0.00 0.00 0.00 97 1023.9
20260902054541 61 0 0.0 2.0 0.00 0.00 0.00 97 1023.8
20260902054021 61 0 0.0 2.0 0.00 0.00 0.00 97 1023.6
20260902053517 61 360 0.0 3.0 0.00 0.00 0.00 97 1023.5
20260902053044 61 0 0.0 3.0 0.00 0.00 0.00 97 1023.5
20260902052523 61 360 0.0 3.0 0.00 0.00 0.00 97 1023.3
20260902052019 61 0 0.0 1.0 0.00 0.00 0.00 97 1023.3
20260902051538 61 0 0.0 0.0 0.00 0.00 0.00 97 1023.2
20260902051019 61 0 0.0 0.0 0.00 0.00 0.00 97 1023.1
20260902050519 61 0 0.0 3.0 0.00 0.00 0.00 97 1023.0
20260902050040 61 0 0.0 6.0 0.00 0.00 0.00 97 1022.9
20260902045517 62 360 2.0 6.0 0.00 0.00 0.00 97 1022.7
20260902045016 61 360 2.0 5.0 0.00 0.00 0.00 97 1022.7
20260902044539 62 0 0.0 3.0 0.00 0.00 0.00 97 1022.6
20260902044019 62 0 0.0 0.0 0.00 0.00 0.00 97 1022.7
20260902043520 61 0 0.0 0.0 0.00 0.00 0.00 97 1022.6
20260902043036 62 0 0.0 0.0 0.00 0.00 0.00 97 1022.6
20260902042519 62 0 0.0 4.0 0.00 0.00 0.00 96 1022.6
20260902042021 61 0 0.0 4.0 0.00 0.00 0.00 97 1022.5
20260902041537 61 0 0.0 3.0 0.00 0.00 0.00 96 1022.5
20260902041020 61 0 0.0 3.0 0.00 0.00 0.00 96 1022.4
20260902040522 61 0 0.0 3.0 0.00 0.00 0.00 96 1022.3
20260902040035 61 360 0.0 4.0 0.00 0.00 0.00 96 1022.3
20260902035520 61 360 1.0 4.0 0.00 0.00 0.00 96 1022.4
20260902035017 61 0 0.0 2.0 0.00 0.00 0.00 96 1022.4
20260902034537 61 0 0.0 1.0 0.00 0.00 0.00 96 1022.3
20260902034019 61 0 0.0 1.0 0.00 0.00 0.00 96 1022.4
20260902033520 61 0 0.0 0.0 0.00 0.00 0.00 95 1022.4
20260902033037 61 0 0.0 0.0 0.00 0.00 0.00 96 1022.4
20260902032521 61 0 0.0 0.0 0.00 0.00 0.00 96 1022.3
20260902032021 61 0 0.0 0.0 0.00 0.00 0.00 95 1022.1
20260902031536 62 0 0.0 0.0 0.00 0.00 0.00 95 1022.1
20260902031019 62 0 0.0 0.0 0.00 0.00 0.00 95 1022.2
20260902030518 62 0 0.0 0.0 0.00 0.00 0.00 95 1022.2
20260902030035 62 0 0.0 2.0 0.00 0.00 0.00 95 1022.1
20260902025518 62 0 0.0 4.0 0.00 0.00 0.00 95 1022.1
20260902025021 62 0 0.0 4.0 0.00 0.00 0.00 95 1022.0
20260902024536 62 360 1.0 4.0 0.00 0.00 0.00 95 1021.9
20260902024019 62 0 1.0 4.0 0.00 0.00 0.00 95 1021.9
20260902023520 62 360 0.0 4.0 0.00 0.00 0.00 95 1021.9
20260902023042 62 0 0.0 2.0 0.00 0.00 0.00 95 1021.9
20260902022521 62 0 0.0 2.0 0.00 0.00 0.00 95 1022.1
20260902022021 62 0 0.0 0.0 0.00 0.00 0.00 95 1022.2
20260902021534 63 0 0.0 0.0 0.00 0.00 0.00 95 1022.2
20260902021018 63 0 0.0 0.0 0.00 0.00 0.00 94 1022.1
20260902020518 63 0 0.0 0.0 0.00 0.00 0.00 94 1022.2
20260902020035 63 0 0.0 0.0 0.00 0.00 0.00 94 1022.1
20260902015520 63 0 0.0 0.0 0.00 0.00 0.00 94 1022.1
20260902015019 63 0 0.0 0.0 0.00 0.00 0.00 94 1022.2
20260902014542 63 0 0.0 0.0 0.00 0.00 0.00 94 1022.2
20260902014021 63 0 0.0 0.0 0.00 0.00 0.00 94 1022.3
20260902013519 63 0 0.0 0.0 0.00 0.00 0.00 93 1022.3
20260902013035 63 0 0.0 0.0 0.00 0.00 0.00 93 1022.4
20260902012519 63 0 0.0 4.0 0.00 0.00 0.00 93 1022.4
20260902012019 63 0 0.0 5.0 0.00 0.00 0.00 93 1022.3
20260902011546 63 360 1.0 6.0 0.00 0.00 0.00 92 1022.2
20260902011018 64 0 2.0 6.0 0.00 0.00 0.00 92 1022.2
20260902010517 64 360 3.0 6.0 0.00 0.00 0.00 92 1022.1
20260902010034 64 360 2.0 5.0 0.00 0.00 0.00 91 1022.1
20260902005519 64 360 0.0 4.0 0.00 0.00 0.00 91 1022.1
20260902005020 64 0 0.0 0.0 0.00 0.00 0.00 91 1022.0
20260902004538 64 0 0.0 0.0 0.00 0.00 0.00 91 1022.0
20260902004019 64 0 0.0 3.0 0.00 0.00 0.00 91 1022.0
20260902003520 64 0 0.0 5.0 0.00 0.00 0.00 91 1022.0
20260902003037 64 0 0.0 5.0 0.00 0.00 0.00 91 1022.0
20260902002516 64 360 1.0 5.0 0.00 0.00 0.00 91 1021.9
20260902002021 64 360 2.0 8.0 0.00 0.00 0.00 90 1021.7
20260902001535 64 360 2.0 8.0 0.00 0.00 0.00 90 1021.6
20260902001019 64 360 4.0 8.0 0.00 0.00 0.00 90 1021.5
20260902000517 64 360 3.0 8.0 0.00 0.00 0.00 90 1021.5
20260902000043 65 360 3.0 6.0 0.00 0.00 0.00 89 1021.4
20260901235521 65 360 2.0 5.0 0.00 0.00 0.00 89 1021.5
20260901235020 65 360 1.0 5.0 0.00 0.00 0.00 89 1021.6
20260901234537 65 360 0.0 5.0 0.00 0.00 0.00 88 1021.5
20260901234020 65 0 2.0 4.0 0.00 0.00 0.00 88 1021.5
20260901233520 65 360 0.0 4.0 0.00 0.00 0.00 88 1021.5
20260901233036 65 360 1.0 4.0 0.00 0.00 0.00 87 1021.5
20260901232517 65 360 0.0 4.0 0.00 0.00 0.00 87 1021.6
20260901232018 65 0 1.0 8.0 0.00 0.00 0.00 87 1021.6
20260901231536 65 360 1.0 8.0 0.00 0.00 0.00 87 1021.5
20260901231017 66 0 0.0 5.0 0.00 0.00 0.00 86 1021.6
20260901230518 66 360 0.0 5.0 0.00 0.00 0.00 86 1021.7
20260901230036 66 360 1.0 5.0 0.00 0.00 0.00 85 1021.6
20260901225520 66 0 0.0 4.0 0.00 0.00 0.00 85 1021.6
20260901225018 66 0 0.0 4.0 0.00 0.00 0.00 84 1021.5
20260901224541 66 360 1.0 6.0 0.00 0.00 0.00 83 1021.4
20260901224019 66 360 3.0 6.0 0.00 0.00 0.00 83 1021.3
20260901223519 67 360 2.0 8.0 0.00 0.00 0.00 82 1021.3
20260901223036 67 360 3.0 8.0 0.00 0.00 0.00 81 1021.3
20260901222519 67 0 3.0 8.0 0.00 0.00 0.00 81 1021.1
20260901222016 67 360 3.0 8.0 0.00 0.00 0.00 80 1021.1
20260901221547 68 360 3.0 8.0 0.00 0.00 0.00 80 1021.1
20260901221018 68 360 3.0 8.0 0.00 0.00 0.00 80 1021.1
20260901220517 68 360 4.0 10.0 0.00 0.00 0.00 79 1021.1
20260901220041 69 360 4.0 10.0 0.00 0.00 0.00 79 1021.1
20260901215517 69 360 2.0 7.0 0.00 0.00 0.00 79 1021.1
20260901215020 69 155 3.0 7.0 0.00 0.00 0.00 78 1021.2
20260901214553 69 134 2.0 7.0 0.00 0.00 0.00 78 1021.2
20260901214019 69 360 1.0 8.0 0.00 0.00 0.00 77 1021.2
20260901213519 69 160 3.0 9.0 0.00 0.00 0.00 77 1021.1
20260901213036 69 150 4.0 9.0 0.00 0.00 0.00 76 1021.0
20260901212516 69 0 2.0 9.0 0.00 0.00 0.00 76 1021.0
20260901212019 69 150 3.0 9.0 0.00 0.00 0.00 75 1020.9
20260901211535 69 138 4.0 9.0 0.00 0.00 0.00 74 1020.9
20260901211018 70 144 2.0 12.0 0.00 0.00 0.00 72 1020.9
20260901210521 70 147 3.0 12.0 0.00 0.00 0.00 71 1020.9
20260901210037 70 127 2.0 11.0 0.00 0.00 0.00 69 1020.8
20260901205520 70 146 4.0 11.0 0.00 0.00 0.00 68 1020.7
20260901205020 70 142 5.0 11.0 0.00 0.00 0.00 69 1020.7
20260901204537 70 125 5.0 11.0 0.00 0.00 0.00 69 1020.7
20260901204020 70 53 3.0 10.0 0.00 0.00 0.00 70 1020.6
20260901203518 70 90 6.0 10.0 0.00 0.00 0.00 71 1020.6
20260901203037 70 134 4.0 10.0 0.00 0.00 0.00 71 1020.6
20260901202518 70 360 4.0 11.0 0.00 0.00 0.00 74 1020.5
20260901202016 70 360 3.0 11.0 0.00 0.00 0.00 73 1020.6
20260901201535 70 360 4.0 10.0 0.00 0.00 0.00 73 1020.7
20260901201020 69 360 5.0 10.0 0.00 0.00 0.00 71 1020.7
20260901200520 69 360 2.0 10.0 0.00 0.00 0.00 71 1020.7
20260901200036 69 360 5.0 10.0 0.00 0.00 0.00 71 1020.6
20260901195518 69 360 6.0 10.0 0.00 0.00 0.00 71 1020.6
20260901195021 69 360 4.0 10.0 0.00 0.00 0.00 74 1020.6
20260901194537 69 360 3.0 9.0 0.00 0.00 0.00 73 1020.6
20260901194020 69 360 2.0 8.0 0.00 0.00 0.00 73 1020.6
20260901193518 69 360 4.0 8.0 0.00 0.00 0.00 73 1020.7